This is the latest recevied weather packets stored in our database for station/object 4S6DRJ-13. If no packets are shown the sender has not sent any weather packets the latest 10 day(s).
| Time | Temp. | Humidity | Pressure | Rain* | Wind** | Luminosity | Snow |
|---|---|---|---|---|---|---|---|
| 1787694688 | 26.67° C | 90% | 1009.9 hPa | 0 mm | 1.79 m/s, 273° | 0 W/m² | - |
| 1787694626 | 26.67° C | 90% | 1010 hPa | 0 mm | 1.79 m/s, 210° | 0 W/m² | - |
| 1787694565 | 26.67° C | 90% | 1009.9 hPa | 0 mm | 1.34 m/s, 263° | 0 W/m² | - |
| 1787694505 | 26.67° C | 90% | 1009.8 hPa | 0 mm | 0.89 m/s, 217° | 0 W/m² | - |
| 1787694443 | 26.67° C | 90% | 1009.9 hPa | 0 mm | 0.45 m/s, 249° | 0 W/m² | - |
| 1787694382 | 26.67° C | 90% | 1009.8 hPa | 0 mm | 1.79 m/s, 237° | 0 W/m² | - |
| 1787694322 | 26.67° C | 90% | 1009.8 hPa | 0 mm | 1.79 m/s, 163° | 0 W/m² | - |
| 1787694260 | 26.67° C | 90% | 1009.9 hPa | 0 mm | 1.34 m/s, 249° | 0 W/m² | - |
| 1787694200 | 26.67° C | 90% | 1010.1 hPa | 0 mm | 1.79 m/s, 222° | 0 W/m² | - |
| 1787694138 | 26.67° C | 90% | 1009.9 hPa | 0 mm | 0.89 m/s, 209° | 0 W/m² | - |
| 1787694077 | 26.67° C | 90% | 1009.9 hPa | 0 mm | 1.34 m/s, 195° | 0 W/m² | - |
| 1787694016 | 26.67° C | 90% | 1010 hPa | 0 mm | 0.89 m/s, 236° | 0 W/m² | - |
| 1787693955 | 26.67° C | 90% | 1010.1 hPa | 0 mm | 0.45 m/s, 85° | 0 W/m² | - |
| 1787693894 | 26.67° C | 90% | 1009.9 hPa | 0 mm | 0.45 m/s, 258° | 0 W/m² | - |
| 1787693833 | 26.67° C | 90% | 1009.9 hPa | 0 mm | 0.89 m/s, 208° | 0 W/m² | - |
| 1787693773 | 26.67° C | 90% | 1009.9 hPa | 0 mm | 1.34 m/s, 208° | 0 W/m² | - |
| 1787693711 | 26.67° C | 90% | 1009.9 hPa | 0 mm | 1.34 m/s, 204° | 0 W/m² | - |
| 1787693650 | 26.67° C | 90% | 1010 hPa | 0 mm | 0.89 m/s, 196° | 0 W/m² | - |
| 1787693589 | 26.67° C | 90% | 1010.1 hPa | 0 mm | 0.45 m/s, 242° | 0 W/m² | - |
| 1787693528 | 26.67° C | 90% | 1010.1 hPa | 0 mm | 0.89 m/s, 238° | 0 W/m² | - |
| 1787693468 | 26.67° C | 90% | 1010 hPa | 0 mm | 1.79 m/s, 219° | 0 W/m² | - |
| 1787693406 | 26.67° C | 90% | 1009.9 hPa | 0 mm | 0.45 m/s, 229° | 0 W/m² | - |
| 1787693345 | 26.67° C | 90% | 1010 hPa | 0 mm | 0.89 m/s, 245° | 0 W/m² | - |
| 1787693284 | 26.67° C | 90% | 1010.1 hPa | 0 mm | 0.89 m/s, 237° | 0 W/m² | - |
| 1787693223 | 26.67° C | 90% | 1010 hPa | 0 mm | 2.24 m/s, 249° | 0 W/m² | - |
* Rain latest hour (hover to see other rain measurements)
** Current wind speed in m/s (hover to see current wind gust speed)